Location: Sternwarte_Laufen
(47.9344°N, 12.9346°E)
Time: 00:42:15
(UTC+02:00)

ISS - Pass Details

Date: 24 May 2017
Orbit: 402 x 408 km, 51.6° (Epoch: 27 May)

Event Time Altitude Azimuth Distance (km) Brightness Sun altitude
Rises 03:33:13 0° 293° (WNW) 2,331 -0.1 -13.7°
Reaches altitude 10° 03:35:18 10° 292° (WNW) 1,467 -1.1 -13.5°
Maximum altitude 03:38:35 83° 205° (SSW) 413 -3.9 -13.2°
Drops below altitude 10° 03:41:52 10° 117° (ESE) 1,457 -0.9 -12.8°
Sets 03:43:56 0° 117° (ESE) 2,313 0.2 -12.6°
